Time,TemperatureF,DewpointF,PressureIn,WindDirection,WindDirectionDegrees,WindSpeedMPH,WindSpeedGustMPH,Humidity,HourlyPrecipIn,Conditions,Clouds,dailyrainin,SoftwareType,DateUTC
2013-04-18 00:02:00,48.1,43.2,30.49,NNW,342,1.0,1.0,83,0.00,,,0.00,Wunderground v.1.15,2013-04-18 07:02:00,
2013-04-18 00:12:00,48.3,44.0,30.49,NNW,346,1.0,4.0,85,0.00,,,0.00,Wunderground v.1.15,2013-04-18 07:12:00,
2013-04-18 00:17:00,48.3,44.0,30.49,NW,313,2.0,5.0,85,0.00,,,0.00,Wunderground v.1.15,2013-04-18 07:17:00,
2013-04-18 00:22:00,48.3,44.3,30.49,NW,314,2.0,5.0,86,0.00,,,0.00,Wunderground v.1.15,2013-04-18 07:22:00,
2013-04-18 00:32:00,48.0,44.0,30.49,NW,307,1.0,1.0,86,0.00,,,0.00,Wunderground v.1.15,2013-04-18 07:32:00,
2013-04-18 00:42:00,47.9,43.9,30.49,NNW,333,1.0,4.0,86,0.00,,,0.00,Wunderground v.1.15,2013-04-18 07:42:00,
2013-04-18 00:52:00,47.9,43.9,30.49,NW,322,1.0,7.0,86,0.00,,,0.00,Wunderground v.1.15,2013-04-18 07:52:00,
2013-04-18 01:02:00,47.8,43.8,30.49,NNW,332,1.0,4.0,86,0.00,,,0.00,Wunderground v.1.15,2013-04-18 08:02:00,
2013-04-18 01:12:00,47.8,44.1,30.50,WNW,296,2.0,7.0,87,0.00,,,0.00,Wunderground v.1.15,2013-04-18 08:12:00,
2013-04-18 01:22:00,47.8,44.1,30.49,NW,320,1.0,4.0,87,0.00,,,0.00,Wunderground v.1.15,2013-04-18 08:22:00,
2013-04-18 01:32:00,47.7,43.7,30.50,North,5,1.0,1.0,86,0.00,,,0.00,Wunderground v.1.15,2013-04-18 08:32:00,
2013-04-18 01:42:00,47.6,43.6,30.49,NNW,327,1.0,1.0,86,0.00,,,0.00,Wunderground v.1.15,2013-04-18 08:42:00,
2013-04-18 01:47:00,47.6,43.6,30.50,North,360,1.0,4.0,86,0.00,,,0.00,Wunderground v.1.15,2013-04-18 08:47:00,
2013-04-18 01:52:00,47.6,43.6,30.49,North,5,2.0,2.0,86,0.00,,,0.00,Wunderground v.1.15,2013-04-18 08:52:00,
2013-04-18 02:02:00,47.6,43.6,30.49,North,10,2.0,6.0,86,0.00,,,0.00,Wunderground v.1.15,2013-04-18 09:02:00,
2013-04-18 02:12:00,47.5,43.2,30.49,North,355,3.0,3.0,85,0.00,,,0.00,Wunderground v.1.15,2013-04-18 09:12:00,
2013-04-18 02:22:00,47.5,43.2,30.50,NNE,28,3.0,3.0,85,0.00,,,0.00,Wunderground v.1.15,2013-04-18 09:22:00,
2013-04-18 02:32:00,47.5,43.2,30.49,North,351,2.0,7.0,85,0.00,,,0.00,Wunderground v.1.15,2013-04-18 09:32:00,
2013-04-18 02:42:00,47.4,42.8,30.50,North,5,3.0,3.0,84,0.00,,,0.00,Wunderground v.1.15,2013-04-18 09:42:00,
2013-04-18 02:52:00,47.4,42.8,30.50,North,5,3.0,3.0,84,0.00,,,0.00,Wunderground v.1.15,2013-04-18 09:52:00,
2013-04-18 03:02:00,47.4,42.5,30.49,NNW,345,3.0,3.0,83,0.00,,,0.00,Wunderground v.1.15,2013-04-18 10:02:00,
2013-04-18 03:12:00,47.4,42.5,30.49,North,9,3.0,6.0,83,0.00,,,0.00,Wunderground v.1.15,2013-04-18 10:12:00,
2013-04-18 03:22:00,47.4,42.2,30.49,NNE,22,2.0,7.0,82,0.00,,,0.00,Wunderground v.1.15,2013-04-18 10:22:00,
2013-04-18 03:32:00,47.3,42.1,30.49,North,5,2.0,2.0,82,0.00,,,0.00,Wunderground v.1.15,2013-04-18 10:32:00,
2013-04-18 03:42:00,47.2,41.3,30.49,North,10,1.0,1.0,80,0.00,,,0.00,Wunderground v.1.15,2013-04-18 10:42:00,
2013-04-18 03:52:00,47.0,40.8,30.49,NNE,13,1.0,7.0,79,0.00,,,0.00,Wunderground v.1.15,2013-04-18 10:52:00,
2013-04-18 03:57:00,46.9,40.4,30.49,NNW,329,1.0,7.0,78,0.00,,,0.00,Wunderground v.1.15,2013-04-18 10:57:00,
2013-04-18 04:07:00,46.9,40.1,30.49,North,355,1.0,4.0,77,0.00,,,0.00,Wunderground v.1.15,2013-04-18 11:07:00,
2013-04-18 04:17:00,46.9,40.4,30.49,NNW,340,1.0,4.0,78,0.00,,,0.00,Wunderground v.1.15,2013-04-18 11:17:00,
2013-04-18 04:22:00,46.9,40.4,30.49,NNW,328,2.0,2.0,78,0.00,,,0.00,Wunderground v.1.15,2013-04-18 11:22:00,
2013-04-18 04:32:00,47.0,40.8,30.50,NNW,345,1.0,4.0,79,0.00,,,0.00,Wunderground v.1.15,2013-04-18 11:32:00,
2013-04-18 04:42:00,47.0,40.8,30.50,North,360,1.0,1.0,79,0.00,,,0.00,Wunderground v.1.15,2013-04-18 11:42:00,
2013-04-18 04:52:00,46.9,41.1,30.50,North,11,2.0,2.0,80,0.00,,,0.00,Wunderground v.1.15,2013-04-18 11:52:00,
2013-04-18 04:57:00,46.9,41.1,30.50,NNE,14,2.0,3.0,80,0.00,,,0.00,Wunderground v.1.15,2013-04-18 11:57:00,
2013-04-18 05:07:00,46.8,41.0,30.50,North,9,2.0,6.0,80,0.00,,,0.00,Wunderground v.1.15,2013-04-18 12:07:00,
2013-04-18 05:17:00,46.7,40.9,30.50,North,9,1.0,5.0,80,0.00,,,0.00,Wunderground v.1.15,2013-04-18 12:17:00,
2013-04-18 05:22:00,46.7,40.9,30.50,North,9,1.0,5.0,80,0.00,,,0.00,Wunderground v.1.15,2013-04-18 12:22:00,
2013-04-18 05:27:00,46.6,40.8,30.50,North,9,1.0,5.0,80,0.00,,,0.00,Wunderground v.1.15,2013-04-18 12:27:00,
2013-04-18 05:32:00,46.5,40.7,30.50,North,9,1.0,1.0,80,0.00,,,0.00,Wunderground v.1.15,2013-04-18 12:32:00,
2013-04-18 05:42:00,46.3,40.8,30.49,North,9,0.0,1.0,81,0.00,,,0.00,Wunderground v.1.15,2013-04-18 12:42:00,
2013-04-18 05:52:00,46.0,40.5,30.49,North,9,0.0,2.0,81,0.00,,,0.00,Wunderground v.1.15,2013-04-18 12:52:00,
2013-04-18 05:57:00,45.8,40.6,30.49,North,9,0.0,2.0,82,0.00,,,0.00,Wunderground v.1.15,2013-04-18 12:57:00,
2013-04-18 06:07:00,45.6,40.4,30.49,North,9,1.0,2.0,82,0.00,,,0.00,Wunderground v.1.15,2013-04-18 13:07:00,
2013-04-18 06:17:00,45.5,40.6,30.49,North,9,0.0,1.0,83,0.00,,,0.00,Wunderground v.1.15,2013-04-18 13:17:00,
2013-04-18 06:27:00,45.4,40.5,30.50,North,9,0.0,1.0,83,0.00,,,0.00,Wunderground v.1.15,2013-04-18 13:27:00,
2013-04-18 06:37:00,45.5,40.9,30.50,North,9,0.0,1.0,84,0.00,,,0.00,Wunderground v.1.15,2013-04-18 13:37:00,
2013-04-18 06:47:00,45.6,41.0,30.50,North,9,0.0,1.0,84,0.00,,,0.00,Wunderground v.1.15,2013-04-18 13:47:00,
2013-04-18 06:52:00,45.6,41.4,30.50,North,9,1.0,1.0,85,0.00,,,0.00,Wunderground v.1.15,2013-04-18 13:52:00,
2013-04-18 06:57:00,45.6,41.4,30.50,North,9,0.0,1.0,85,0.00,,,0.00,Wunderground v.1.15,2013-04-18 13:57:00,
2013-04-18 07:07:00,45.9,41.9,30.50,North,9,0.0,1.0,86,0.00,,,0.00,Wunderground v.1.15,2013-04-18 14:07:00,
2013-04-18 07:17:00,46.6,42.3,30.50,North,9,0.0,1.0,85,0.00,,,0.00,Wunderground v.1.15,2013-04-18 14:17:00,
2013-04-18 07:27:00,46.8,42.2,30.50,North,9,1.0,2.0,84,0.00,,,0.00,Wunderground v.1.15,2013-04-18 14:27:00,
2013-04-18 07:32:00,47.0,42.4,30.50,North,9,0.0,2.0,84,0.00,,,0.00,Wunderground v.1.15,2013-04-18 14:32:00,
2013-04-18 07:42:00,47.2,42.3,30.50,North,9,0.0,1.0,83,0.00,,,0.00,Wunderground v.1.15,2013-04-18 14:42:00,
2013-04-18 07:47:00,47.3,42.1,30.51,North,9,0.0,1.0,82,0.00,,,0.00,Wunderground v.1.15,2013-04-18 14:47:00,
2013-04-18 07:52:00,47.3,42.1,30.51,North,9,0.0,2.0,82,0.00,,,0.00,Wunderground v.1.15,2013-04-18 14:52:00,
2013-04-18 08:02:00,47.4,42.2,30.51,North,9,0.0,1.0,82,0.00,,,0.00,Wunderground v.1.15,2013-04-18 15:02:00,
2013-04-18 08:12:00,47.6,42.4,30.51,North,9,0.0,0.0,82,0.00,,,0.00,Wunderground v.1.15,2013-04-18 15:12:00,
2013-04-18 08:17:00,47.8,42.6,30.51,North,9,0.0,1.0,82,0.00,,,0.00,Wunderground v.1.15,2013-04-18 15:17:00,
2013-04-18 08:27:00,48.8,42.9,30.51,North,9,0.0,2.0,80,0.00,,,0.00,Wunderground v.1.15,2013-04-18 15:27:00,
2013-04-18 08:37:00,49.4,42.8,30.51,North,9,1.0,3.0,78,0.00,,,0.00,Wunderground v.1.15,2013-04-18 15:37:00,
2013-04-18 08:47:00,49.2,42.6,30.51,North,5,1.0,4.0,78,0.00,,,0.00,Wunderground v.1.15,2013-04-18 15:47:00,
2013-04-18 08:57:00,48.6,42.4,30.51,North,5,2.0,4.0,79,0.00,,,0.00,Wunderground v.1.15,2013-04-18 15:57:00,
2013-04-18 09:07:00,48.3,42.4,30.51,North,5,3.0,5.0,80,0.00,,,0.00,Wunderground v.1.15,2013-04-18 16:07:00,
2013-04-18 09:17:00,48.2,42.3,30.51,North,355,3.0,5.0,80,0.00,,,0.00,Wunderground v.1.15,2013-04-18 16:17:00,
2013-04-18 09:27:00,48.2,42.3,30.51,NNW,336,3.0,5.0,80,0.00,,,0.00,Wunderground v.1.15,2013-04-18 16:27:00,
2013-04-18 09:32:00,48.2,43.9,30.51,WNW,298,4.0,4.0,85,0.00,,,0.00,Wunderground v.1.15,2013-04-18 16:32:00,
2013-04-18 09:42:00,48.4,42.8,30.51,WNW,298,4.0,5.0,81,0.00,,,0.00,Wunderground v.1.15,2013-04-18 16:42:00,
2013-04-18 09:47:00,48.3,42.7,30.51,WNW,298,4.0,5.0,81,0.00,,,0.00,Wunderground v.1.15,2013-04-18 16:47:00,
2013-04-18 09:57:00,48.3,42.7,30.51,WNW,296,4.0,5.0,81,0.00,,,0.00,Wunderground v.1.15,2013-04-18 16:57:00,
2013-04-18 10:02:00,48.4,42.8,30.51,WNW,291,4.0,6.0,81,0.00,,,0.00,Wunderground v.1.15,2013-04-18 17:02:00,
2013-04-18 10:12:00,48.7,43.1,30.51,WNW,288,5.0,5.0,81,0.00,,,0.00,Wunderground v.1.15,2013-04-18 17:12:00,
2013-04-18 10:22:00,48.8,42.9,30.51,West,276,5.0,8.0,80,0.00,,,0.00,Wunderground v.1.15,2013-04-18 17:22:00,
2013-04-18 10:27:00,48.6,42.7,30.51,West,273,5.0,8.0,80,0.00,,,0.00,Wunderground v.1.15,2013-04-18 17:27:00,
2013-04-18 10:37:00,48.7,43.1,30.51,West,267,5.0,7.0,81,0.00,,,0.00,Wunderground v.1.15,2013-04-18 17:37:00,
2013-04-18 10:47:00,48.8,42.9,30.51,West,266,5.0,7.0,80,0.00,,,0.00,Wunderground v.1.15,2013-04-18 17:47:00,
2013-04-18 10:57:00,48.9,43.0,30.51,West,263,6.0,8.0,80,0.00,,,0.00,Wunderground v.1.15,2013-04-18 17:57:00,
2013-04-18 11:07:00,49.4,43.5,30.51,West,260,5.0,8.0,80,0.00,,,0.00,Wunderground v.1.15,2013-04-18 18:07:00,
2013-04-18 11:17:00,49.5,43.6,30.51,West,263,4.0,7.0,80,0.00,,,0.00,Wunderground v.1.15,2013-04-18 18:17:00,
2013-04-18 11:27:00,49.4,43.5,30.51,West,267,5.0,7.0,80,0.00,,,0.00,Wunderground v.1.15,2013-04-18 18:27:00,
2013-04-18 11:37:00,49.7,44.1,30.51,West,272,5.0,7.0,81,0.00,,,0.00,Wunderground v.1.15,2013-04-18 18:37:00,
2013-04-18 11:42:00,49.7,43.5,30.51,West,261,5.0,8.0,79,0.00,,,0.00,Wunderground v.1.15,2013-04-18 18:42:00,
2013-04-18 11:52:00,50.2,44.3,30.51,West,261,6.0,6.0,80,0.00,,,0.00,Wunderground v.1.15,2013-04-18 18:52:00,
2013-04-18 12:02:00,50.5,44.2,30.52,West,276,7.0,10.0,79,0.00,,,0.00,Wunderground v.1.15,2013-04-18 19:02:00,
2013-04-18 12:07:00,50.5,44.2,30.52,West,267,7.0,11.0,79,0.00,,,0.00,Wunderground v.1.15,2013-04-18 19:07:00,
2013-04-18 12:17:00,50.9,44.3,30.52,West,274,7.0,12.0,78,0.00,,,0.00,Wunderground v.1.15,2013-04-18 19:17:00,
2013-04-18 12:22:00,50.8,44.2,30.51,West,277,7.0,7.0,78,0.00,,,0.00,Wunderground v.1.15,2013-04-18 19:22:00,
2013-04-18 12:27:00,50.7,43.8,30.51,West,269,6.0,8.0,77,0.00,,,0.00,Wunderground v.1.15,2013-04-18 19:27:00,
2013-04-18 12:37:00,50.6,43.7,30.50,West,270,5.0,8.0,77,0.00,,,0.00,Wunderground v.1.15,2013-04-18 19:37:00,
2013-04-18 12:42:00,50.3,43.0,30.50,West,267,5.0,7.0,76,0.00,,,0.00,Wunderground v.1.15,2013-04-18 19:42:00,
2013-04-18 12:52:00,50.1,42.8,30.50,West,260,6.0,8.0,76,0.00,,,0.00,Wunderground v.1.15,2013-04-18 19:52:00,
2013-04-18 13:02:00,50.6,44.3,30.50,West,281,6.0,9.0,79,0.00,,,0.00,Wunderground v.1.15,2013-04-18 20:02:00,
2013-04-18 13:12:00,50.8,44.5,30.50,West,271,6.0,6.0,79,0.00,,,0.00,Wunderground v.1.15,2013-04-18 20:12:00,
2013-04-18 13:22:00,50.4,44.5,30.50,West,265,7.0,7.0,80,0.00,,,0.00,Wunderground v.1.15,2013-04-18 20:22:00,
2013-04-18 13:32:00,50.5,44.2,30.50,WNW,302,6.0,9.0,79,0.00,,,0.00,Wunderground v.1.15,2013-04-18 20:32:00,
2013-04-18 13:42:00,50.5,44.2,30.49,West,273,5.0,8.0,79,0.00,,,0.00,Wunderground v.1.15,2013-04-18 20:42:00,
2013-04-18 13:47:00,50.5,44.6,30.49,West,272,5.0,8.0,80,0.00,,,0.00,Wunderground v.1.15,2013-04-18 20:47:00,
2013-04-18 13:52:00,50.5,44.2,30.49,West,271,4.0,6.0,79,0.00,,,0.00,Wunderground v.1.15,2013-04-18 20:52:00,
2013-04-18 14:02:00,50.4,44.1,30.48,West,270,4.0,7.0,79,0.00,,,0.00,Wunderground v.1.15,2013-04-18 21:02:00,
2013-04-18 14:12:00,50.7,44.4,30.48,West,262,5.0,5.0,79,0.00,,,0.00,Wunderground v.1.15,2013-04-18 21:12:00,
2013-04-18 14:22:00,51.0,44.4,30.48,West,265,5.0,9.0,78,0.00,,,0.00,Wunderground v.1.15,2013-04-18 21:22:00,
2013-04-18 14:27:00,50.8,44.5,30.48,West,269,6.0,9.0,79,0.00,,,0.00,Wunderground v.1.15,2013-04-18 21:27:00,
2013-04-18 14:37:00,50.7,44.1,30.48,West,262,6.0,8.0,78,0.00,,,0.00,Wunderground v.1.15,2013-04-18 21:37:00,
2013-04-18 14:47:00,51.0,44.7,30.48,West,259,6.0,9.0,79,0.00,,,0.00,Wunderground v.1.15,2013-04-18 21:47:00,
2013-04-18 14:57:00,51.2,44.6,30.48,WSW,257,5.0,8.0,78,0.00,,,0.00,Wunderground v.1.15,2013-04-18 21:57:00,
2013-04-18 15:07:00,50.8,44.2,30.48,West,261,6.0,9.0,78,0.00,,,0.00,Wunderground v.1.15,2013-04-18 22:07:00,
2013-04-18 15:12:00,50.9,44.6,30.48,WSW,257,6.0,8.0,79,0.00,,,0.00,Wunderground v.1.15,2013-04-18 22:12:00,
2013-04-18 15:22:00,50.9,44.9,30.48,West,273,8.0,8.0,80,0.00,,,0.00,Wunderground v.1.15,2013-04-18 22:22:00,
2013-04-18 15:27:00,51.2,45.2,30.48,West,274,8.0,11.0,80,0.00,,,0.00,Wunderground v.1.15,2013-04-18 22:27:00,
2013-04-18 15:37:00,51.9,45.6,30.48,West,275,6.0,10.0,79,0.00,,,0.00,Wunderground v.1.15,2013-04-18 22:37:00,
2013-04-18 15:47:00,51.8,45.2,30.47,WNW,290,6.0,9.0,78,0.00,,,0.00,Wunderground v.1.15,2013-04-18 22:47:00,
2013-04-18 15:57:00,52.1,45.1,30.47,West,281,5.0,7.0,77,0.00,,,0.00,Wunderground v.1.15,2013-04-18 22:57:00,
2013-04-18 16:07:00,51.5,45.2,30.46,WNW,294,5.0,8.0,79,0.00,,,0.00,Wunderground v.1.15,2013-04-18 23:07:00,
2013-04-18 16:17:00,52.0,45.7,30.46,West,265,4.0,7.0,79,0.00,,,0.00,Wunderground v.1.15,2013-04-18 23:17:00,
2013-04-18 16:27:00,52.0,45.7,30.46,NW,315,4.0,7.0,79,0.00,,,0.00,Wunderground v.1.15,2013-04-18 23:27:00,
2013-04-18 16:32:00,51.9,45.6,30.46,West,265,4.0,7.0,79,0.00,,,0.00,Wunderground v.1.15,2013-04-18 23:32:00,
2013-04-18 16:42:00,51.1,45.1,30.45,West,263,5.0,7.0,80,0.00,,,0.00,Wunderground v.1.15,2013-04-18 23:42:00,
2013-04-18 16:52:00,50.8,45.2,30.45,West,269,5.0,5.0,81,0.00,,,0.00,Wunderground v.1.15,2013-04-18 23:52:00,
2013-04-18 17:02:00,51.1,45.8,30.45,West,261,5.0,7.0,82,0.00,,,0.00,Wunderground v.1.15,2013-04-19 00:02:00,
2013-04-18 17:07:00,50.8,45.5,30.45,West,261,5.0,8.0,82,0.00,,,0.00,Wunderground v.1.15,2013-04-19 00:07:00,
2013-04-18 17:17:00,50.8,45.8,30.45,West,263,7.0,9.0,83,0.00,,,0.00,Wunderground v.1.15,2013-04-19 00:17:00,
2013-04-18 17:27:00,51.2,46.2,30.45,West,264,6.0,8.0,83,0.00,,,0.00,Wunderground v.1.15,2013-04-19 00:27:00,
2013-04-18 17:37:00,51.1,46.1,30.45,West,269,6.0,7.0,83,0.00,,,0.00,Wunderground v.1.15,2013-04-19 00:37:00,
2013-04-18 17:47:00,50.9,46.2,30.45,West,267,5.0,7.0,84,0.00,,,0.00,Wunderground v.1.15,2013-04-19 00:47:00,
2013-04-18 17:52:00,51.1,46.7,30.45,West,265,5.0,7.0,85,0.00,,,0.00,Wunderground v.1.15,2013-04-19 00:52:00,
2013-04-18 18:02:00,51.1,46.7,30.45,West,265,5.0,8.0,85,0.00,,,0.00,Wunderground v.1.15,2013-04-19 01:02:00,
2013-04-18 18:12:00,50.9,46.9,30.44,WSW,252,4.0,7.0,86,0.00,,,0.00,Wunderground v.1.15,2013-04-19 01:12:00,
2013-04-18 18:22:00,50.8,46.8,30.45,West,267,5.0,7.0,86,0.00,,,0.00,Wunderground v.1.15,2013-04-19 01:22:00,
2013-04-18 18:27:00,50.7,47.0,30.44,West,262,4.0,8.0,87,0.00,,,0.00,Wunderground v.1.15,2013-04-19 01:27:00,
2013-04-18 18:37:00,50.5,46.8,30.45,West,261,5.0,7.0,87,0.00,,,0.00,Wunderground v.1.15,2013-04-19 01:37:00,
2013-04-18 18:47:00,50.5,47.1,30.45,WSW,252,4.0,5.0,88,0.00,,,0.00,Wunderground v.1.15,2013-04-19 01:47:00,
2013-04-18 18:57:00,50.4,47.0,30.45,WSW,244,4.0,6.0,88,0.00,,,0.00,Wunderground v.1.15,2013-04-19 01:57:00,
2013-04-18 19:07:00,50.3,47.2,30.44,WSW,243,3.0,6.0,89,0.00,,,0.00,Wunderground v.1.15,2013-04-19 02:07:00,
2013-04-18 19:17:00,50.4,47.6,30.43,WSW,244,3.0,5.0,90,0.00,,,0.00,Wunderground v.1.15,2013-04-19 02:17:00,
2013-04-18 19:22:00,50.2,47.4,30.43,WSW,242,4.0,7.0,90,0.00,,,0.00,Wunderground v.1.15,2013-04-19 02:22:00,
2013-04-18 19:32:00,50.3,47.5,30.43,WSW,240,4.0,6.0,90,0.00,,,0.00,Wunderground v.1.15,2013-04-19 02:32:00,
2013-04-18 19:42:00,50.0,47.5,30.43,WSW,239,4.0,4.0,91,0.00,,,0.00,Wunderground v.1.15,2013-04-19 02:42:00,
2013-04-18 19:52:00,49.8,47.6,30.43,WSW,243,4.0,4.0,92,0.00,,,0.00,Wunderground v.1.15,2013-04-19 02:52:00,
2013-04-18 19:57:00,49.7,47.5,30.42,WSW,243,3.0,6.0,92,0.00,,,0.00,Wunderground v.1.15,2013-04-19 02:57:00,
2013-04-18 20:07:00,49.6,47.7,30.42,WSW,239,3.0,5.0,93,0.00,,,0.00,Wunderground v.1.15,2013-04-19 03:07:00,
2013-04-18 20:12:00,49.5,47.6,30.42,WSW,239,3.0,3.0,93,0.00,,,0.00,Wunderground v.1.15,2013-04-19 03:12:00,
2013-04-18 20:22:00,49.4,47.7,30.42,WSW,240,3.0,3.0,94,0.00,,,0.00,Wunderground v.1.15,2013-04-19 03:22:00,
2013-04-18 20:32:00,49.3,47.6,30.42,SW,228,4.0,4.0,94,0.00,,,0.00,Wunderground v.1.15,2013-04-19 03:32:00,
2013-04-18 20:42:00,49.4,48.0,30.41,SW,224,4.0,6.0,95,0.00,,,0.00,Wunderground v.1.15,2013-04-19 03:42:00,
2013-04-18 20:52:00,49.5,48.1,30.41,SW,221,3.0,5.0,95,0.00,,,0.00,Wunderground v.1.15,2013-04-19 03:52:00,
2013-04-18 21:02:00,49.5,48.1,30.41,SW,221,3.0,4.0,95,0.00,,,0.00,Wunderground v.1.15,2013-04-19 04:02:00,
2013-04-18 21:07:00,49.5,48.1,30.42,SW,230,3.0,6.0,95,0.00,,,0.00,Wunderground v.1.15,2013-04-19 04:07:00,
2013-04-18 21:12:00,49.5,48.1,30.42,SW,232,3.0,3.0,95,0.00,,,0.00,Wunderground v.1.15,2013-04-19 04:12:00,
2013-04-18 21:22:00,49.4,48.0,30.42,SW,232,2.0,2.0,95,0.00,,,0.00,Wunderground v.1.15,2013-04-19 04:22:00,
2013-04-18 21:27:00,49.4,48.0,30.41,SW,232,3.0,3.0,95,0.00,,,0.00,Wunderground v.1.15,2013-04-19 04:27:00,
2013-04-18 21:32:00,49.5,48.1,30.41,SW,232,1.0,3.0,95,0.00,,,0.00,Wunderground v.1.15,2013-04-19 04:32:00,
2013-04-18 21:42:00,49.4,48.0,30.42,SW,225,2.0,5.0,95,0.00,,,0.00,Wunderground v.1.15,2013-04-19 04:42:00,
2013-04-18 21:52:00,49.4,48.0,30.41,SW,223,2.0,5.0,95,0.00,,,0.00,Wunderground v.1.15,2013-04-19 04:52:00,
2013-04-18 21:57:00,49.4,48.0,30.42,SW,222,3.0,5.0,95,0.00,,,0.00,Wunderground v.1.15,2013-04-19 04:57:00,
2013-04-18 22:07:00,49.5,48.1,30.41,SW,219,4.0,6.0,95,0.00,,,0.00,Wunderground v.1.15,2013-04-19 05:07:00,
2013-04-18 22:17:00,49.5,48.1,30.41,SSW,210,3.0,5.0,95,0.00,,,0.00,Wunderground v.1.15,2013-04-19 05:17:00,
2013-04-18 22:27:00,49.5,48.1,30.40,SSW,205,2.0,5.0,95,0.00,,,0.00,Wunderground v.1.15,2013-04-19 05:27:00,
2013-04-18 22:37:00,49.5,48.4,30.39,South,189,2.0,5.0,96,0.00,,,0.00,Wunderground v.1.15,2013-04-19 05:37:00,
2013-04-18 22:47:00,49.4,48.3,30.39,South,171,3.0,6.0,96,0.00,,,0.00,Wunderground v.1.15,2013-04-19 05:47:00,
2013-04-18 22:57:00,49.2,48.1,30.39,South,170,3.0,7.0,96,0.00,,,0.00,Wunderground v.1.15,2013-04-19 05:57:00,
2013-04-18 23:07:00,49.2,48.1,30.39,South,170,2.0,4.0,96,0.00,,,0.00,Wunderground v.1.15,2013-04-19 06:07:00,
2013-04-18 23:12:00,49.2,48.1,30.39,South,170,2.0,2.0,96,0.00,,,0.00,Wunderground v.1.15,2013-04-19 06:12:00,
2013-04-18 23:22:00,49.2,48.1,30.38,SSW,202,4.0,8.0,96,0.00,,,0.00,Wunderground v.1.15,2013-04-19 06:22:00,
2013-04-18 23:32:00,49.4,48.3,30.38,SW,230,5.0,5.0,96,0.00,,,0.00,Wunderground v.1.15,2013-04-19 06:32:00,
2013-04-18 23:42:00,49.4,48.3,30.38,WSW,251,5.0,8.0,96,0.00,,,0.00,Wunderground v.1.15,2013-04-19 06:42:00,
2013-04-18 23:52:00,49.4,48.3,30.38,WSW,249,6.0,6.0,96,0.00,,,0.00,Wunderground v.1.15,2013-04-19 06:52:00,
2013-04-18 23:57:00,49.4,48.3,30.38,WSW,244,6.0,8.0,96,0.00,,,0.00,Wunderground v.1.15,2013-04-19 06:57:00,